Location: Stony Creek
(40.9500°S, 175.8500°E)
Time: 10:06:47
(UTC+00:00)

Cosmos 921 Rocket - Pass Details

Date: 15 May 2026
Orbit: 563 x 619 km, 75.8° (Epoch: 9 June)

Event Time Altitude Azimuth Distance (km) Brightness Sun altitude
Exits shadow 18:00:19 - 201° (SSW) 2,220 5.6 -14.6°
Reaches altitude 10° 18:00:54 10° 202° (SSW) 1,985 5.3 -14.5°
Maximum altitude 18:05:19 69° 284° (WNW) 664 3.0 -13.7°
Drops below altitude 10° 18:09:44 10° 7° (N) 1,983 5.9 -12.9°
Sets 18:11:58 0° 9° (N) 2,884 6.8 -12.5°
